Time,TemperatureF,DewpointF,PressureIn,WindDirection,WindDirectionDegrees,WindSpeedMPH,WindSpeedGustMPH,Humidity,HourlyPrecipIn,Conditions,Clouds,dailyrainin,SoftwareType,DateUTC
2013-08-15 00:02:00,62.4,44.6,30.11,NNE,12,0.0,0.0,52,0.00,CLR,,0.00,WeatherDisplay:10.37,2013-08-15 05:02:00,
2013-08-15 00:07:00,62.2,44.9,30.11,NNE,13,0.0,0.0,53,0.00,CLR,,0.00,WeatherDisplay:10.37,2013-08-15 05:07:00,
2013-08-15 00:13:00,62.2,44.9,30.11,NNE,18,0.0,0.0,53,0.00,CLR,,0.00,WeatherDisplay:10.37,2013-08-15 05:13:00,
2013-08-15 00:18:00,62.1,44.7,30.11,NNE,19,0.0,0.0,53,0.00,CLR,,0.00,WeatherDisplay:10.37,2013-08-15 05:18:00,
2013-08-15 00:23:00,62.1,44.7,30.11,NNE,18,0.0,0.0,53,0.00,CLR,,0.00,WeatherDisplay:10.37,2013-08-15 05:23:00,
2013-08-15 00:28:00,62.1,44.7,30.11,North,10,0.0,0.0,53,0.00,CLR,,0.00,WeatherDisplay:10.37,2013-08-15 05:28:00,
2013-08-15 00:33:00,62.1,45.2,30.11,North,10,0.0,0.0,54,0.00,CLR,,0.00,WeatherDisplay:10.37,2013-08-15 05:33:00,
2013-08-15 00:38:00,61.9,45.0,30.11,North,10,0.0,0.0,54,0.00,CLR,,0.00,WeatherDisplay:10.37,2013-08-15 05:38:00,
2013-08-15 00:43:00,61.9,44.6,30.11,North,10,0.0,0.0,53,0.00,CLR,,0.00,WeatherDisplay:10.37,2013-08-15 05:43:00,
2013-08-15 00:48:00,61.9,44.6,30.11,North,10,0.0,0.0,53,0.00,CLR,,0.00,WeatherDisplay:10.37,2013-08-15 05:48:00,
2013-08-15 00:53:00,61.7,44.4,30.11,North,10,0.0,0.0,53,0.00,CLR,,0.00,WeatherDisplay:10.37,2013-08-15 05:53:00,
2013-08-15 00:58:00,61.7,44.9,30.11,North,10,0.0,0.0,54,0.00,CLR,,0.00,WeatherDisplay:10.37,2013-08-15 05:58:00,
2013-08-15 01:03:00,61.7,44.4,30.08,North,10,0.0,0.0,53,0.00,CLR,,0.00,WeatherDisplay:10.37,2013-08-15 06:03:00,
2013-08-15 01:09:00,61.5,44.7,30.08,North,10,0.0,0.0,54,0.00,CLR,,0.00,WeatherDisplay:10.37,2013-08-15 06:09:00,
2013-08-15 01:14:00,61.3,44.5,30.08,North,10,0.0,0.0,54,0.00,CLR,,0.00,WeatherDisplay:10.37,2013-08-15 06:14:00,
2013-08-15 01:19:00,61.3,44.5,30.08,NNE,31,0.0,0.0,54,0.00,CLR,,0.00,WeatherDisplay:10.37,2013-08-15 06:19:00,
2013-08-15 01:24:00,61.3,44.5,30.08,NNE,31,0.0,0.0,54,0.00,CLR,,0.00,WeatherDisplay:10.37,2013-08-15 06:24:00,
2013-08-15 01:29:00,61.2,44.4,30.08,NNE,31,0.0,0.0,54,0.00,CLR,,0.00,WeatherDisplay:10.37,2013-08-15 06:29:00,
2013-08-15 01:34:00,61.0,44.7,30.08,NNE,29,0.0,0.0,55,0.00,CLR,,0.00,WeatherDisplay:10.37,2013-08-15 06:34:00,
2013-08-15 01:39:00,61.0,44.7,30.08,NNE,29,0.0,0.0,55,0.00,CLR,,0.00,WeatherDisplay:10.37,2013-08-15 06:39:00,
2013-08-15 01:44:00,60.8,44.5,30.08,NNE,29,0.0,0.0,55,0.00,CLR,,0.00,WeatherDisplay:10.37,2013-08-15 06:44:00,
2013-08-15 01:49:00,60.6,44.8,30.08,NNE,29,0.0,0.0,56,0.00,CLR,,0.00,WeatherDisplay:10.37,2013-08-15 06:49:00,
2013-08-15 01:54:00,60.6,44.8,30.08,NNE,29,0.0,0.0,56,0.00,CLR,,0.00,WeatherDisplay:10.37,2013-08-15 06:54:00,
2013-08-15 01:59:00,60.6,45.3,30.08,NNE,29,0.0,0.0,57,0.00,CLR,,0.00,WeatherDisplay:10.37,2013-08-15 06:59:00,
2013-08-15 02:04:00,60.6,45.3,30.08,NNE,29,0.0,0.0,57,0.00,CLR,,0.00,WeatherDisplay:10.37,2013-08-15 07:04:00,
2013-08-15 02:09:00,60.4,45.1,30.08,NNE,29,0.0,0.0,57,0.00,CLR,,0.00,WeatherDisplay:10.37,2013-08-15 07:09:00,
2013-08-15 02:14:00,60.4,45.6,30.08,NNE,29,0.0,0.0,58,0.00,CLR,,0.00,WeatherDisplay:10.37,2013-08-15 07:14:00,
2013-08-15 02:19:00,60.4,45.6,30.08,NNE,25,0.0,0.0,58,0.00,CLR,,0.00,WeatherDisplay:10.37,2013-08-15 07:19:00,
2013-08-15 02:24:00,60.3,45.4,30.08,NE,37,0.0,0.0,58,0.00,CLR,,0.00,WeatherDisplay:10.37,2013-08-15 07:24:00,
2013-08-15 02:29:00,60.4,45.6,30.08,NNE,26,0.0,0.0,58,0.00,CLR,,0.00,WeatherDisplay:10.37,2013-08-15 07:29:00,
2013-08-15 02:34:00,60.4,45.6,30.08,NNE,23,0.0,0.0,58,0.00,CLR,,0.00,WeatherDisplay:10.37,2013-08-15 07:34:00,
2013-08-15 02:39:00,60.4,45.6,30.08,NNE,23,0.0,0.0,58,0.00,CLR,,0.00,WeatherDisplay:10.37,2013-08-15 07:39:00,
2013-08-15 02:44:00,60.4,45.6,30.08,NNE,23,0.0,0.0,58,0.00,CLR,,0.00,WeatherDisplay:10.37,2013-08-15 07:44:00,
2013-08-15 02:49:00,60.4,45.6,30.08,NNE,24,0.0,0.0,58,0.00,CLR,,0.00,WeatherDisplay:10.37,2013-08-15 07:49:00,
2013-08-15 02:54:00,60.4,45.1,30.08,NNE,31,0.0,0.0,57,0.00,CLR,,0.00,WeatherDisplay:10.37,2013-08-15 07:54:00,
2013-08-15 02:59:00,60.4,45.1,30.08,NE,37,0.0,0.0,57,0.00,CLR,,0.00,WeatherDisplay:10.37,2013-08-15 07:59:00,
2013-08-15 03:04:00,60.4,45.1,30.08,NNE,15,0.0,2.7,57,0.00,CLR,,0.00,WeatherDisplay:10.37,2013-08-15 08:04:00,
2013-08-15 03:09:00,60.4,45.1,30.08,NE,44,0.0,0.0,57,0.00,CLR,,0.00,WeatherDisplay:10.37,2013-08-15 08:09:00,
2013-08-15 03:14:00,60.4,45.1,30.08,North,7,0.0,0.0,57,0.00,CLR,,0.00,WeatherDisplay:10.37,2013-08-15 08:14:00,
2013-08-15 03:19:00,60.4,44.7,30.08,North,7,0.0,0.0,56,0.00,CLR,,0.00,WeatherDisplay:10.37,2013-08-15 08:19:00,
2013-08-15 03:24:00,60.3,44.5,30.08,North,7,0.0,0.0,56,0.00,CLR,,0.00,WeatherDisplay:10.37,2013-08-15 08:24:00,
2013-08-15 03:29:00,60.1,44.8,30.08,North,7,0.0,0.0,57,0.00,CLR,,0.00,WeatherDisplay:10.37,2013-08-15 08:29:00,